スペースウォッチ-パンスターズ彗星

491P/Spacewatch-PanSTARRS (2013)

English version
Home page
Updated on August 9, 2025

---------------------------------------------------------------------

・ プロフィール

符号 491P/2014 MG4
発見日 2014年6月20日、7月25日
発見光度 19.4等
発見者 Spacewatch (Kitt Peak), Pan-STARRS 1 telescope (Haleakala)

・ 写真集

・ 軌道要素

                    Epoch = 2013 May  28.0 TT
     T = 2013 June 13.49971 TT        Peri. = 298.85315
     e = 0.2588508                    Node  = 311.86109 2000.0
     q = 3.7142377 AU                 Incl. =   9.36735
       a =  5.0114578 AU   n = 0.08785328   P =  11.22 years

・ 光度変化

        m1 = 4.0 + 5 logΔ + 20.0 log r(t - 500)

---------------------------------------------------------------------

軌道要素は、CBET 5431に掲載されたものです。
光度グラフはComet for Windowsで作成したものです。

---------------------------------------------------------------------

Copyright(C) Seiichi Yoshida (comet@aerith.net). All rights reserved.